#timestamp,LO_Frequency,Hit,StdDev 
1674000015.3,286047002.5,N
1674000035.2,286047002.5,N
1674000055.9,286047000.2,N
1674000075.7,286047001.6,N
1674000095.6,286047002.7,N
1674000115.4,286047002.3,N
1674000135.2,286047002.3,N
1674000155.1,286047001.6,N
1674000156.0,286047001.6,N
1674000175.8,286047002.5,Y
1674000195.6,286047000.7,P
1674000215.5,286047000.3,N
1674000235.3,286047000.8,N
1674000255.1,286047000.2,N
1674000275.9,286046999.7,N
1674000295.7,286047000.1,N
1674000315.5,286047000.5,N
1674000335.4,286046999.7,N
1674000355.2,286047002.7,Y
1674000375.0,286047000.1,P
1674000375.9,286047000.1,N
1674000395.8,286046999.7,N
1674000415.6,286047000.7,N
1674000435.4,286046999.8,N
1674000455.3,286047000.2,N
1674000475.1,286047000.8,N
1674000495.8,286047000.6,N
1674000515.7,286046999.7,N
1674000535.5,286046999.8,N
1674000555.3,286047000.2,N
1674000575.2,286047004.0,Y
1674000595.0,286047000.4,P
1674000595.9,286047000.4,P
1674000615.7,286047001.0,P
1674000635.6,286047001.0,Y
1674000655.4,286046998.3,P
1674000675.2,286047000.0,N
1674000695.1,286047000.9,N
1674000696.0,286047000.9,N
1674000715.8,286047002.2,N
1674000735.7,286047000.1,N
1674000755.5,286047000.0,N
1674000775.3,286047002.4,N
1674000795.2,286047002.4,N
1674000815.9,286046999.7,N
1674000835.7,286047002.6,N
1674000855.6,286046999.7,N
1674000875.4,286047001.9,N
1674000895.2,286047002.1,N
1674000915.0,286047002.6,N
1674000916.0,286047002.6,N
1674000935.8,286047002.6,N
1674000955.6,286047002.7,N
1674000975.5,286046999.8,N
1674000995.3,286046999.8,N
1674001015.1,286047004.4,Y
1674001035.9,286047002.7,P
1674001055.7,286046999.8,N
1674001075.5,286046999.7,N
1674001095.4,286046999.8,N
1674001115.2,286046999.9,N
1674001135.0,286047002.7,N
1674001135.9,286047002.7,N
1674001155.8,286047002.7,N
1674001175.6,286047000.2,N
1674001195.4,286047002.7,N
1674001215.3,286047000.2,N
1674001235.1,286047000.4,N
1674001236.0,286047000.4,N
1674001255.8,286047001.2,N
1674001275.7,286047000.4,N
1674001295.5,286047000.9,N
1674001315.3,286047001.2,N
1674001335.2,286047000.8,N
1674001355.9,286047000.9,N
1674001375.7,286046999.8,N
1674001395.6,286047000.3,N
1674001415.4,286047000.9,N
1674001435.2,286047000.4,N
1674001455.1,286047000.0,N
1674001456.0,286047000.0,N
1674001475.8,286047000.8,N
1674001495.6,286047000.1,N
1674001515.5,286046999.8,N
1674001535.3,286047002.4,N
1674001555.1,286047000.0,N
1674001575.9,286047000.1,N
1674001595.7,286047001.1,N
1674001615.5,286046998.2,N
1674001635.4,286047000.2,N
1674001655.2,286047000.3,N
1674001675.0,286047002.5,N
1674001675.9,286047002.5,N
1674001695.8,286047002.3,N
1674001715.6,286047001.8,N
1674001735.4,286047001.7,N
1674001755.3,286047001.9,N
1674001775.1,286047002.2,N
1674001776.0,286047002.2,N
1674001795.8,286047001.5,N
1674001815.7,286047001.5,N
1674001835.5,286047002.3,N
1674001855.3,286047002.3,N
1674001875.2,286047002.6,N
1674001895.9,286047002.1,N
1674001915.7,286047001.6,N
1674001965.6,286047004.0,E
1674001975.5,286047000.2,N
1674001995.3,286047000.8,P
1674002015.2,286047000.6,N
1674002035.0,286047002.7,Y
1674002035.9,286047002.7,P
1674002085.8,286047001.0,E
1674002095.7,286047001.2,N
1674002115.5,286046998.3,P
1674002135.4,286046999.5,N
1674002155.2,286046996.7,N
1674002175.0,286046996.9,N
1674002175.9,286046996.9,N
1674002195.8,286046996.9,N
1674002215.6,286046997.4,N
1674002235.4,286046995.0,Y
1674002255.3,286046999.6,P
1674002275.1,286046998.9,N
1674002276.0,286046998.9,N
1674002295.8,286046998.4,N
1674002315.7,286046996.8,Y
1674002335.5,286046999.0,P
1674002355.3,286046998.5,P
1674002375.2,286046998.1,P
1674002395.9,286046998.1,Y
1674002415.7,286047000.9,P
1674002435.6,286047000.2,N
1674002455.4,286047001.0,N
1674002475.2,286047001.1,N
1674002495.1,286046998.1,N
1674002496.0,286046998.1,N
1674002515.8,286046999.4,N
1674002535.6,286046998.6,N
1674002555.5,286046998.9,N
1674002575.3,286046998.4,N
1674002595.1,286047000.4,N
1674002615.9,286047000.6,N
1674002635.7,286047000.9,N
1674002655.5,286047001.0,N
1674002675.4,286047000.9,N
1674002695.2,286047000.7,N
1674002715.0,286046998.1,N
1674002715.9,286046998.1,N
1674002735.8,286046997.0,N
1674002755.6,286046999.1,N
1674002775.4,286046999.5,N
1674002795.2,286046999.2,N
1674002815.1,286046999.2,N
1674002816.0,286046999.2,N
1674002835.8,286046996.6,N
1674002855.6,286046996.7,N
1674002875.5,286046999.6,N
1674002895.3,286046996.7,N
1674002915.1,286046997.4,N
1674002935.9,286046997.6,N
1674002955.7,286046997.5,N
1674002975.5,286046997.8,N
1674002995.4,286046998.0,N
1674003015.2,286046997.1,N
1674003035.0,286046996.9,N
1674003035.9,286046996.9,N
1674003055.8,286046996.7,N
1674003075.6,286046997.1,N
1674003095.4,286046997.1,N
1674003115.3,286046994.9,Y
1674003135.1,286046997.4,P
1674003155.8,286046997.5,P
1674003175.7,286046997.1,P
1674003195.5,286046997.2,Y
1674003215.3,286047000.9,P
1674003235.2,286046998.1,N
1674003255.0,286047000.6,N
1674003255.9,286047000.6,N
1674003275.7,286046998.8,N
1674003295.6,286046998.1,N
1674003315.4,286047000.9,N
1674003335.2,286046998.6,N
1674003355.1,286046998.5,N
1674003356.0,286046998.5,N
1674003375.8,286047000.7,N
1674003395.6,286046998.3,N
1674003415.5,286046998.5,N
1674003435.3,286046998.4,N
1674003455.1,286046998.7,N
1674003475.9,286046999.2,N
1674003495.7,286046999.1,N
1674003515.5,286046996.6,Y
1674003535.4,286046998.3,P
1674003555.2,286046999.1,N
1674003575.0,286046998.7,P
1674003575.9,286046998.7,Y
1674003595.8,286047000.9,P
